This demonstration page uses our WeatherBlox Daily Observations layout. Learn more.

Left ArrowRight Arrow

39.08367, -84.50855

Hourly Observations for March 17, 2018

Temp ( °F °C ) Dew Point ( °F °C ) Humidity (%) Winds ( mph kmh ) Pressure ( in mb ) Visibility ( mi km ) Precip ( " mm )
12:53 am 00:53 Clear 36 2.2 20 -6.7 52 52 NE 6 9 30.04 1017 10 16.0934 0 0
1:53 am 01:53 Mostly Cloudy 36 2.2 19 -7.2 50 50 NNE 6 9 30.01 1016 10 16.0934 0 0
2:53 am 02:53 Cloudy 37 2.8 21 -6.1 52 52 NE 6 9 30 1016 10 16.0934 0 0
3:53 am 03:53 Cloudy 38 3.3 18 -7.8 44 44 ENE 3 6 29.97 1015 10 16.0934 0 0
4:53 am 04:53 Cloudy with Light Rain 36 2.2 27 -2.8 70 70 NNE 5 7 29.95 1014 10 16.0934 0.02 0.508
5:53 am 05:53 Cloudy with Light Rain 34 1.1 31 -0.6 89 89 NE 7 11 29.93 1014 8 12.87472 0.13 3.302
6:31 am 06:31 Cloudy with Light Rain 34 1.1 32 0 92 92 E 3 6 29.94 1014 10 16.0934 0.01 0.254
6:53 am 06:53 Cloudy 34 1.1 32 0 92 92 E 5 7 29.9 1012 10 16.0934 0.01 0.254
7:30 am 07:30 Partly Cloudy 33 0.6 31 -0.6 92 92 NE 5 7 29.94 1014 10 16.0934 0 0
7:53 am 07:53 Mostly Cloudy 33 0.6 31 -0.6 92 92 NE 5 7 29.91 1013 9 14.48406 0 0
8:53 am 08:53 Cloudy 35 1.7 32 0 89 89 NE 5 7 29.91 1013 10 16.0934 0 0
9:53 am 09:53 Cloudy 37 2.8 33 0.6 86 86 NE 6 9 29.9 1013 10 16.0934 0 0
10:36 am 10:36 Cloudy 38 3.3 34 1.1 86 86 NNE 3 6 29.94 1014 10 16.0934 0 0
10:53 am 10:53 Cloudy 38 3.3 34 1.1 86 86 E 6 9 29.91 1013 10 16.0934 0 0
11:53 am 11:53 Cloudy 38 3.3 36 2.2 93 93 E 6 9 29.91 1013 9 14.48406 0 0.0254
12:53 pm 12:53 Cloudy with Mist and Fog 39 3.9 37 2.8 93 93 ENE 6 9 29.91 1013 5 8.0467 0.01 0.254
1:53 pm 13:53 Cloudy 40 4.4 38 3.3 93 93 NE 7 11 29.88 1012 10 16.0934 0 0
2:53 pm 14:53 Cloudy 42 5.6 39 3.9 89 89 NE 8 13 29.86 1011 10 16.0934 0 0
3:53 pm 15:53 Cloudy with Light Rain 43 6.1 39 3.9 86 86 ENE 7 11 29.85 1011 10 16.0934 0 0.0254
4:06 pm 16:06 Cloudy 43 6.1 39 3.9 86 86 ESE 6 9 29.85 1011 10 16.0934 0 0.0254
4:53 pm 16:53 Cloudy 45 7.2 39 3.9 80 80 ENE 5 7 29.83 1010 10 16.0934 0 0.0254
5:53 pm 17:53 Cloudy 45 7.2 39 3.9 80 80 ENE 5 7 29.83 1010 10 16.0934 0 0
6:53 pm 18:53 Cloudy 46 7.8 38 3.3 73 73 NNE 7 11 29.84 1011 10 16.0934 0 0
7:53 pm 19:53 Cloudy 45 7.2 34 1.1 66 66 N 7 11 29.86 1011 10 16.0934 0 0
8:53 pm 20:53 Cloudy 45 7.2 33 0.6 63 63 NNE 6 9 29.88 1012 10 16.0934 0 0
9:53 pm 21:53 Cloudy 44 6.7 32 0 63 63 NE 9 15 29.91 1013 10 16.0934 0 0
10:53 pm 22:53 Cloudy 43 6.1 34 1.1 71 71 NE 8 13 29.95 1014 10 16.0934 0 0
11:53 pm 23:53 Cloudy 41 5 34 1.1 76 76 NNE 10 17 29.98 1015 10 16.0934 0 0

Powered by AerisWeather